Weather in Middlesbrough

United Kingdom     54°34′32″N   1°14′37″W
temp.,
°C
wind,
m/s
gust,
m/s
humid.,
%
clouds,
%
prec.,
mm/h
press.,
hPa
HPBL,
m
25 may, wed
wed2501:00+7s489413 0.1 1007142
04:00+8s5118991 0.0 1005311
07:00+10ssw7128582 0.0 10051019
10:00+11ssw81483100 0.0 1004710
13:00+13wsw71287100 0.5 10041020
16:00+16w91370100 0.3 10061539
19:00+13w8147047 0.4 10091425
22:00+10wsw4107488 0.0 1012332
26 may, thu
thu2601:00+7sw378912 0.0 1014111
04:00+6ssw48947 0.0 1014145
07:00+10sw51084100 0.0 1014741
10:00+10ssw51091100 0.3 1014582
13:00+13wsw7129355 2.2 1013808
16:00+17w9136638 0.4 10141863
19:00+13wnw714728 0.6 10151615
22:00+7w48755 0.0 1018189
27 may, fri
fri2701:00+5sw377414 0.0 1019167
04:00+8w7157274 0.0 1019989
07:00+9wnw7147554 0.0 10201159
10:00+13wnw8126211 0.0 10211306
13:00+14wnw81164100 0.1 10221920
16:00+15wnw9126230 0.1 10221964
19:00+13wnw811685 0.1 10231311
22:00+10wnw613755 0.0 1025576
28 may, sat
sat2801:00+6wnw35894 0.0 102692
04:00+5wsw22935 0.0 102728
07:00+8nw24817 0.0 1027208
10:00+12nne556668 0.0 10281185
13:00+12nne556248 0.0 1028947
16:00+13ne666085 0.0 1027859
19:00+11ne4773100 0.0 1027546
22:00+8nne3587100 0.1 1027248
29 may, sun
sun2901:00+8nne3683100 0.1 1026396
04:00+7nnw2488100 0.1 1025167
07:00+9nnw3681100 0.1 1024689
10:00+11n4566100 0.0 10231053
13:00+12nne456267 0.0 10221054
16:00+12nne446299 0.0 1021823
19:00+11sw12688 0.0 1019292
22:00+8sw348352 0.0 101860